Regional Weather Roundup
Issued by NWS

Home | Current Version | Previous Version | Graphics & Text | Print | Product List | Glossary On
Versions: 1 2 3 4 5 6 7 8 9 10 11 12 13 14 15 16 17 18 19 20 21 22 23 24 25 26 27 28 29 30 31 32 33 34 35 36 37 38 39 40 41 42 43 44 45 46 47 48 49 50
084
ASUS45 KCYS 111410
RWRWY

WYOMING REGIONAL WEATHER ROUNDUP
NATIONAL WEATHER SERVICE CHEYENNE WY
700 AM MST MON DEC 11 2017

NOTE:  "FAIR" INDICATES FEW OR NO CLOUDS BELOW 12,000 FEET
WITH NO SIGNIFICANT WEATHER AND/OR OBSTRUCTIONS TO VISIBILITY.

WYZ001-111500-
YELLOWSTONE NATIONAL PARK

CITY           SKY/WX    TMP DP  RH WIND       PRES   REMARKS
LK YELLOWSTONE   N/A      3   0  87 CALM      30.58F
W YELLOWSTONE  NOT AVBL

$$
WYZ002>013-054>058-071-098>099-111500-
NORTHERN WYOMING

CITY           SKY/WX    TMP DP  RH WIND       PRES   REMARKS
JACKSON        MOCLDY    10   8  92 NE3       30.61S
CODY           FAIR      26  14  60 S5        30.42R WCI  20
GREYBULL       FAIR      11   8  88 CALM      30.45R
WORLAND        FAIR      11   8  88 S3        30.42S
SHERIDAN       FAIR      36  15  42 W13       30.38R WCI  27
BUFFALO        FAIR      41   9  26 N14G22    30.36R
GILLETTE       FAIR      28  16  60 W9        30.34R WCI  19
HULETT         FAIR      37  19  48 NW12G18   30.32R WCI  30
NEWCASTLE      FAIR      37  12  35 NW26G36   30.28R WCI  26

$$
WYZ014>020-022>026-101>103-111500-
CENTRAL WYOMING

CITY           SKY/WX    TMP DP  RH WIND       PRES   REMARKS
BIG PINEY      FAIR      18   2  49 CALM      30.49R
PINEDALE       FAIR      25   9  50 N3        30.48R
DUBOIS         FAIR      41  16  36 W28G36    30.44S
LANDER         FAIR      18  11  74 CALM      30.44R
RIVERTON       FAIR      13   9  84 SW9       30.44R WCI   1
CASPER         FAIR      30  12  47 SW18      30.38S WCI  18
DOUGLAS        FAIR      23  15  71 W8        30.38R WCI  14

$$
WYZ021-027>030-104>119-111500-
SOUTHERN WYOMING

CITY           SKY/WX    TMP DP  RH WIND       PRES   REMARKS
EVANSTON       FAIR      29   2  31 S3        30.53S
FORT BRIDGER   FAIR      32  -2  23 W10       30.53S WCI  24
ROCK SPRINGS   FAIR      22   3  44 W10       30.47S WCI  11
DIXON          FAIR       4  -1  77 CALM      30.54S
RAWLINS        FAIR      25   6  44 E3        30.47R
SARATOGA       FAIR      10   3  72 W5        30.47R WCI   2
LARAMIE        FAIR      19   2  47 N6        30.38R WCI  11
CHEYENNE       FAIR      36   0  21 NW10      30.32R WCI  28
TORRINGTON     FAIR      31  13  47 W7        30.32R WCI  24
PINE BLUFFS    FAIR      30   3  31 MISG      30.32S

$$




USA.gov is the U.S. government's official web portal to all federal, state and local government web resources and services.